DW9580 Weather Reports


time (UTC)temp
C
wind
direction
speed
KPH
gust
KPH
rain 1hr
cm
rain 24hr
cm
rain mn
cm
humidity
%
barometer
mb
20260510011204 10 5 0.0 0.0 0.00 0.10 0.00 81 1013.0
20260510010733 10 5 0.0 0.0 0.00 0.10 0.00 81 1013.1
20260510010205 10 5 0.0 0.0 0.00 0.10 0.00 81 1013.1
20260510005705 10 5 0.0 0.0 0.00 0.10 0.00 81 1013.1
20260510005205 10 5 0.0 0.0 0.00 0.10 0.00 81 1013.0
20260510003205 10 5 0.0 0.0 0.00 0.10 0.00 80 1013.1
20260510002705 10 5 0.0 0.0 0.00 0.10 0.00 80 1013.1
20260510001705 10 5 0.0 0.0 0.00 0.13 0.00 80 1013.2
20260510001205 10 5 0.0 0.0 0.00 0.13 0.00 80 1013.2
20260510000705 10 5 0.0 0.0 0.00 0.13 0.00 79 1013.3
20260510000222 10 5 0.0 0.0 0.00 0.13 0.00 79 1013.3
20260509235705 10 5 0.0 0.0 0.00 0.13 0.00 79 1013.4
20260509235205 10 5 0.0 0.0 0.00 0.13 0.00 78 1013.4
20260509234705 11 5 0.0 0.0 0.00 0.13 0.00 78 1013.5
20260509234205 11 5 0.0 0.0 0.00 0.13 0.00 78 1013.5
20260509233705 11 5 0.0 0.0 0.00 0.13 0.00 78 1013.6
20260509232706 11 5 0.0 0.0 0.00 0.13 0.00 77 1013.6
20260509232205 11 5 0.0 0.0 0.00 0.13 0.00 77 1013.6
20260509231705 11 5 0.0 0.0 0.00 0.13 0.00 76 1013.6
20260509231206 11 5 0.0 0.0 0.00 0.13 0.00 76 1013.6
20260509230705 11 5 0.0 0.0 0.00 0.13 0.00 76 1013.7
20260509225705 12 5 0.0 0.0 0.00 0.13 0.00 75 1013.7
20260509224705 12 5 0.0 0.0 0.00 0.13 0.00 74 1013.8
20260509224208 12 5 0.0 0.0 0.00 0.13 0.00 74 1013.8
20260509223708 12 5 0.0 0.0 0.00 0.13 0.00 74 1013.8
20260509223206 12 5 0.0 0.0 0.00 0.13 0.00 74 1013.8
20260509222705 12 5 0.0 0.0 0.00 0.13 0.00 73 1013.8
20260509222205 12 5 0.0 0.0 0.00 0.13 0.00 72 1013.9
20260509215705 13 5 0.0 0.0 0.00 0.13 0.13 72 1014.0
20260509215205 13 5 0.0 1.6 0.00 0.13 0.13 71 1014.0
20260509214706 13 5 0.0 1.6 0.00 0.13 0.13 71 1014.0
20260509214205 13 5 0.0 1.6 0.00 0.13 0.13 71 1014.1
20260509213705 13 5 0.0 0.0 0.00 0.13 0.13 70 1014.1
20260509212705 13 5 0.0 1.6 0.03 0.13 0.13 69 1014.2
20260509212205 13 5 0.0 1.6 0.03 0.13 0.13 69 1014.2
20260509211705 13 5 0.0 1.6 0.03 0.13 0.13 69 1014.2
20260509210205 13 5 0.0 1.6 0.03 0.13 0.13 67 1014.1
20260509205705 13 5 0.0 1.6 0.03 0.13 0.13 67 1014.1
20260509205206 13 5 0.0 3.2 0.03 0.13 0.13 67 1014.1
20260509204205 14 5 0.0 3.2 0.03 0.13 0.13 67 1014.2
20260509203706 14 5 0.0 3.2 0.03 0.13 0.13 67 1014.1
20260509203205 14 5 0.0 3.2 0.00 0.10 0.10 66 1014.2
20260509202205 14 5 0.0 3.2 0.00 0.10 0.10 66 1014.1
20260509201705 14 5 0.0 3.2 0.00 0.10 0.10 66 1014.0
20260509201206 14 5 0.0 3.2 0.00 0.10 0.10 65 1014.0
20260509200705 15 5 0.0 3.2 0.00 0.10 0.10 65 1014.2
20260509195705 15 5 0.0 1.6 0.00 0.10 0.10 64 1014.1
20260509195205 15 5 0.0 1.6 0.00 0.10 0.10 63 1014.1
20260509194705 15 5 0.0 1.6 0.00 0.10 0.10 63 1014.0
20260509194205 15 5 0.0 1.6 0.00 0.13 0.10 63 1014.0
20260509193714 15 5 0.0 1.6 0.00 0.13 0.10 62 1014.0
20260509193206 16 5 0.0 3.2 0.00 0.13 0.10 61 1014.0
20260509192705 16 5 0.0 3.2 0.00 0.13 0.10 61 1013.9
20260509191704 16 5 0.0 3.2 0.00 0.13 0.10 59 1013.8
20260509191205 16 5 0.0 3.2 0.00 0.13 0.10 59 1013.8
20260509190705 16 5 0.0 4.8 0.00 0.13 0.10 58 1013.9
20260509185705 17 5 0.0 4.8 0.00 0.13 0.10 56 1013.9
20260509184705 17 5 0.0 8.0 0.00 0.13 0.10 55 1014.0
20260509184206 17 5 1.6 8.0 0.00 0.13 0.10 54 1013.9
20260509183705 17 5 3.2 8.0 0.00 0.13 0.10 54 1013.8
20260509183205 18 5 1.6 8.0 0.00 0.13 0.10 53 1013.7
20260509182705 18 5 3.2 8.0 0.00 0.13 0.10 52 1013.7
20260509182205 18 5 1.6 6.4 0.00 0.13 0.10 52 1013.6
20260509181705 18 5 1.6 8.0 0.00 0.13 0.10 52 1013.6
20260509181205 18 5 1.6 8.0 0.00 0.13 0.10 51 1013.5
20260509180705 18 5 1.6 8.0 0.00 0.13 0.10 51 1013.4
20260509180205 18 5 1.6 8.0 0.00 0.13 0.10 50 1013.4
20260509175705 18 5 3.2 9.7 0.00 0.13 0.10 50 1013.5
20260509174705 18 5 3.2 9.7 0.00 0.13 0.10 50 1013.4
20260509174205 19 5 1.6 9.7 0.00 0.13 0.10 50 1013.4
20260509173205 19 5 1.6 8.0 0.00 0.13 0.10 50 1013.4
20260509172705 19 5 1.6 11.3 0.00 0.13 0.10 50 1013.4
20260509172204 20 9 1.6 11.3 0.00 0.13 0.10 49 1013.4
20260509171705 19 9 1.6 11.3 0.00 0.13 0.10 50 1013.3
20260509171204 19 9 1.6 9.7 0.00 0.13 0.10 49 1013.3
20260509170705 19 9 3.2 9.7 0.00 0.13 0.10 48 1013.3
20260509170205 19 5 3.2 8.0 0.00 0.13 0.10 48 1013.3
20260509165705 20 5 3.2 8.0 0.00 0.13 0.10 49 1013.4
20260509165208 20 5 1.6 8.0 0.00 0.13 0.10 49 1013.3
20260509164705 20 5 1.6 8.0 0.00 0.13 0.10 48 1013.3
20260509164206 20 5 3.2 9.7 0.00 0.13 0.10 50 1013.4
20260509163705 20 5 3.2 9.7 0.00 0.13 0.10 48 1013.3
20260509163205 20 5 1.6 9.7 0.00 0.13 0.10 49 1013.5
20260509162705 20 0 1.6 9.7 0.00 0.13 0.10 49 1013.5
20260509162205 20 0 3.2 9.7 0.00 0.13 0.10 49 1013.5
20260509161705 20 355 3.2 9.7 0.00 0.13 0.10 48 1013.5
20260509161234 20 355 3.2 12.9 0.00 0.13 0.10 47 1013.5
20260509160705 20 355 3.2 12.9 0.00 0.13 0.10 48 1013.5
20260509160205 20 355 4.8 12.9 0.00 0.13 0.10 50 1013.6
20260509155706 20 355 4.8 9.7 0.00 0.15 0.10 49 1013.7
20260509155205 20 355 3.2 16.1 0.00 0.15 0.10 48 1013.8
20260509154206 20 351 4.8 14.5 0.00 0.15 0.10 49 1013.8
20260509153705 20 5 4.8 14.5 0.00 0.15 0.10 49 1013.8
20260509153205 20 5 3.2 14.5 0.00 0.15 0.10 49 1013.8
20260509152205 20 37 1.6 14.5 0.03 0.15 0.10 50 1013.9
20260509151705 20 82 1.6 14.5 0.03 0.15 0.10 49 1013.9
20260509150705 20 85 3.2 9.7 0.03 0.15 0.10 48 1014.0
20260509150206 20 39 3.2 9.7 0.03 0.15 0.10 51 1013.9
20260509145705 20 34 3.2 8.0 0.03 0.15 0.10 49 1014.0
20260509145205 20 349 3.2 9.7 0.03 0.15 0.10 49 1014.0
20260509144709 20 348 3.2 12.9 0.03 0.15 0.10 48 1014.0
20260509144206 20 351 4.8 14.5 0.03 0.15 0.10 49 1014.0
20260509143205 20 64 3.2 9.7 0.03 0.15 0.10 49 1014.2
20260509142705 20 36 1.6 6.4 0.00 0.13 0.08 48 1014.3
20260509142205 20 11 0.0 4.8 0.00 0.13 0.08 47 1014.3
20260509141704 20 11 0.0 6.4 0.00 0.13 0.08 48 1014.3
20260509141205 20 5 0.0 8.0 0.00 0.13 0.08 48 1014.3
20260509135705 20 76 3.2 8.0 0.00 0.15 0.08 47 1014.5
20260509135205 20 69 1.6 14.5 0.00 0.15 0.08 48 1014.5
20260509134705 20 96 3.2 14.5 0.00 0.15 0.08 50 1014.6
20260509134205 20 96 3.2 14.5 0.00 0.15 0.08 48 1014.6
20260509133706 20 20 1.6 9.7 0.00 0.15 0.08 46 1014.7
20260509133205 20 33 3.2 9.7 0.03 0.15 0.08 47 1014.7
20260509132705 20 33 3.2 11.3 0.03 0.15 0.08 46 1014.8
20260509132234 20 64 3.2 11.3 0.03 0.15 0.08 46 1014.9
20260509131206 20 56 3.2 9.7 0.03 0.15 0.08 47 1015.0
20260509130705 20 38 3.2 8.0 0.03 0.15 0.08 49 1015.1
20260509130205 20 29 3.2 8.0 0.03 0.15 0.08 49 1015.1
20260509125705 20 30 3.2 8.0 0.03 0.15 0.08 50 1015.1
20260509124705 19 32 4.8 12.9 0.03 0.15 0.08 50 1015.2
20260509124205 19 32 3.2 12.9 0.03 0.15 0.08 50 1015.3
20260509123705 19 90 4.8 12.9 0.03 0.15 0.08 51 1015.3
20260509123205 19 91 4.8 14.5 0.00 0.13 0.05 47 1015.3
20260509122706 19 65 3.2 14.5 0.00 0.13 0.05 48 1015.3
20260509122204 19 46 1.6 14.5 0.00 0.13 0.05 48 1015.3
20260509121706 19 331 0.0 8.0 0.00 0.13 0.05 49 1015.3
20260509121205 19 65 3.2 11.3 0.00 0.13 0.05 48 1015.4
20260509120705 19 64 3.2 12.9 0.00 0.13 0.05 48 1015.4
20260509120206 19 90 3.2 12.9 0.00 0.13 0.05 48 1015.5
20260509115205 19 69 3.2 17.7 0.00 0.13 0.05 46 1015.6
20260509114705 18 54 3.2 17.7 0.00 0.13 0.05 49 1015.6
20260509113705 18 105 3.2 11.3 0.00 0.13 0.05 46 1015.7
20260509113205 18 72 3.2 12.9 0.00 0.13 0.05 49 1015.8
20260509112705 18 72 4.8 12.9 0.00 0.13 0.05 50 1015.9
20260509111705 18 59 3.2 8.0 0.00 0.13 0.05 48 1016.0
20260509111205 18 59 3.2 6.4 0.00 0.13 0.05 48 1016.0
20260509110705 18 69 1.6 6.4 0.00 0.15 0.05 50 1016.1
20260509110205 18 70 0.0 6.4 0.00 0.15 0.05 51 1016.2
20260509105205 18 76 0.0 0.0 0.00 0.15 0.05 50 1016.2
20260509104705 18 77 0.0 0.0 0.00 0.15 0.05 52 1016.3
20260509104206 18 101 0.0 0.0 0.00 0.15 0.05 51 1016.4
20260509103704 18 101 0.0 0.0 0.00 0.15 0.05 49 1016.4
20260509103206 18 98 0.0 0.0 0.00 0.15 0.05 51 1016.5
20260509102205 18 94 0.0 0.0 0.00 0.15 0.05 54 1016.5
20260509101205 17 22 0.0 0.0 0.00 0.15 0.05 55 1016.5
20260509100705 17 57 0.0 0.0 0.00 0.15 0.05 55 1016.6
20260509095708 18 63 0.0 0.0 0.00 0.15 0.05 54 1016.6
20260509095205 18 60 0.0 0.0 0.00 0.15 0.05 54 1016.6
20260509094705 17 60 0.0 0.0 0.00 0.15 0.05 52 1016.6
20260509094206 17 60 0.0 0.0 0.03 0.15 0.05 55 1016.6
20260509093706 17 65 0.0 0.0 0.03 0.15 0.05 55 1016.6
20260509092705 17 45 0.0 0.0 0.03 0.15 0.05 54 1016.6
20260509092205 17 46 0.0 0.0 0.03 0.15 0.05 55 1016.6
20260509091705 17 48 0.0 0.0 0.03 0.15 0.05 54 1016.6
20260509091230 17 42 0.0 0.0 0.03 0.15 0.05 55 1016.6
20260509090206 17 84 0.0 0.0 0.03 0.15 0.05 54 1016.6
20260509085705 17 78 0.0 0.0 0.03 0.15 0.05 56 1016.7
20260509085206 17 78 0.0 0.0 0.03 0.15 0.05 57 1016.7
20260509084705 17 80 0.0 0.0 0.00 0.15 0.05 55 1016.7
20260509084205 17 86 0.0 0.0 0.00 0.15 0.05 59 1016.7
20260509083705 17 86 0.0 0.0 0.00 0.15 0.05 59 1016.7
20260509083206 16 86 0.0 0.0 0.00 0.15 0.05 59 1016.8
20260509082705 16 86 0.0 0.0 0.00 0.15 0.05 60 1016.7
20260509082205 16 91 0.0 0.0 0.00 0.15 0.05 62 1016.8
20260509081705 16 66 0.0 0.0 0.00 0.15 0.05 63 1016.8
20260509081233 16 66 0.0 0.0 0.00 0.15 0.05 62 1016.8
20260509080705 16 66 0.0 0.0 0.00 0.15 0.05 62 1016.8
20260509075705 16 66 0.0 0.0 0.00 0.15 0.05 64 1016.9
20260509074705 16 66 0.0 0.0 0.00 0.15 0.05 64 1016.9
20260509074206 16 66 0.0 3.2 0.00 0.15 0.05 64 1016.8
20260509073705 15 66 0.0 4.8 0.00 0.15 0.05 64 1016.8
20260509073204 15 66 0.0 4.8 0.00 0.15 0.05 67 1016.8
20260509072705 15 66 0.0 4.8 0.03 0.15 0.05 69 1016.8
20260509072205 15 66 0.0 0.0 0.03 0.15 0.05 68 1016.8
20260509071705 15 66 0.0 0.0 0.03 0.15 0.05 68 1016.7
20260509070705 14 66 0.0 0.0 0.03 0.15 0.05 68 1016.8
20260509065705 13 66 0.0 0.0 0.03 0.15 0.05 70 1016.8
20260509065205 13 66 0.0 0.0 0.03 0.15 0.05 71 1016.8
20260509064706 13 66 0.0 0.0 0.03 0.15 0.05 72 1016.7
20260509064205 13 66 0.0 0.0 0.03 0.15 0.05 72 1016.8
20260509063205 12 66 0.0 0.0 0.00 0.13 0.03 76 1016.6
20260509062705 12 66 0.0 0.0 0.00 0.13 0.03 77 1016.6
20260509062206 12 66 0.0 0.0 0.00 0.13 0.03 79 1016.6
20260509061705 11 66 0.0 0.0 0.00 0.13 0.03 80 1016.6
20260509061205 11 66 0.0 0.0 0.00 0.13 0.03 81 1016.6
20260509060705 10 66 0.0 0.0 0.00 0.13 0.03 82 1016.6
20260509060206 10 66 0.0 0.0 0.00 0.13 0.03 82 1016.6
20260509055705 9 66 0.0 0.0 0.00 0.15 0.03 82 1016.6
20260509055205 9 66 0.0 0.0 0.00 0.15 0.03 81 1016.7
20260509054706 8 66 0.0 0.0 0.00 0.15 0.03 80 1016.7
20260509054205 8 66 0.0 0.0 0.00 0.15 0.03 79 1016.7
20260509053704 8 66 0.0 0.0 0.00 0.15 0.03 79 1016.7
20260509053205 7 66 0.0 0.0 0.00 0.15 0.03 79 1016.7
20260509052705 7 66 0.0 0.0 0.00 0.15 0.03 80 1016.6
20260509052205 7 66 0.0 0.0 0.00 0.15 0.03 80 1016.6
20260509051704 6 66 0.0 0.0 0.00 0.15 0.03 80 1016.6
20260509051205 6 66 0.0 0.0 0.00 0.15 0.03 80 1016.6
20260509050705 6 66 0.0 0.0 0.00 0.15 0.03 80 1016.5
20260509050205 6 66 0.0 0.0 0.00 0.15 0.03 81 1016.4
20260509045705 6 66 0.0 0.0 0.00 0.15 0.03 81 1016.4
20260509045205 6 66 0.0 0.0 0.00 0.15 0.03 81 1016.4
20260509044705 6 66 0.0 0.0 0.00 0.15 0.03 81 1016.3
20260509044205 6 66 0.0 0.0 0.00 0.15 0.03 81 1016.3
20260509043705 6 66 0.0 0.0 0.00 0.15 0.03 81 1016.3
20260509043208 6 66 0.0 0.0 0.00 0.15 0.03 82 1016.3
20260509042705 6 66 0.0 0.0 0.00 0.15 0.03 81 1016.2
20260509042205 6 66 0.0 0.0 0.00 0.15 0.03 81 1016.2
20260509041705 6 66 0.0 0.0 0.00 0.15 0.03 81 1016.2
20260509041208 6 66 0.0 0.0 0.00 0.15 0.03 81 1016.2
20260509040705 6 66 0.0 0.0 0.00 0.15 0.03 82 1016.2
20260509040205 6 66 0.0 0.0 0.00 0.15 0.03 82 1016.2
20260509035705 6 66 0.0 0.0 0.00 0.15 0.03 82 1016.3
20260509035205 6 66 0.0 0.0 0.00 0.15 0.03 82 1016.2
20260509034209 6 66 0.0 0.0 0.00 0.15 0.03 82 1016.3
20260509033705 6 66 0.0 0.0 0.00 0.15 0.03 82 1016.3
20260509033206 6 66 0.0 0.0 0.00 0.15 0.03 82 1016.3
20260509032705 6 66 0.0 0.0 0.00 0.15 0.03 82 1016.3
20260509032205 6 66 0.0 0.0 0.00 0.15 0.03 82 1016.3
20260509031705 6 66 0.0 0.0 0.00 0.15 0.03 82 1016.4
20260509031205 6 66 0.0 0.0 0.00 0.15 0.03 82 1016.4
20260509030706 6 66 0.0 0.0 0.00 0.15 0.03 82 1016.4
20260509025706 6 66 0.0 0.0 0.00 0.15 0.03 82 1016.5
20260509024705 6 66 0.0 0.0 0.00 0.15 0.03 82 1016.5
20260509024208 6 66 0.0 0.0 0.00 0.15 0.03 82 1016.5
20260509023706 6 66 0.0 0.0 0.00 0.15 0.03 82 1016.6
20260509023206 6 66 0.0 0.0 0.00 0.15 0.03 82 1016.6
20260509022705 6 66 0.0 0.0 0.00 0.15 0.03 82 1016.5
20260509022205 6 66 0.0 0.0 0.00 0.15 0.03 82 1016.5
20260509021705 6 66 0.0 0.0 0.00 0.15 0.03 82 1016.5
20260509021205 6 66 0.0 0.0 0.00 0.15 0.03 82 1016.6
20260509020707 6 66 0.0 0.0 0.00 0.15 0.03 82 1016.6
20260509020205 6 66 0.0 0.0 0.00 0.15 0.03 82 1016.6
20260509015205 7 66 0.0 0.0 0.00 0.15 0.03 82 1016.5
20260509014705 7 66 0.0 0.0 0.00 0.15 0.03 82 1016.6
20260509014205 7 66 0.0 0.0 0.00 0.15 0.03 82 1016.6
20260509013205 7 66 0.0 0.0 0.00 0.15 0.03 82 1016.6
20260509012205 7 66 0.0 0.0 0.03 0.15 0.03 82 1016.6
20260509011705 7 66 0.0 0.0 0.03 0.15 0.03 82 1016.7